Weather in Atafu

Tokelau     11°03′10″S   171°05′07″W
temp.,
°C
wind,
m/s
gust,
m/s
humid.,
%
clouds,
%
prec.,
mm/h
press.,
hPa
HPBL,
m
22 april, thu
thu2201:00+28e10107782 3.9 1011996
04:00+28e897099 0.3 1010981
07:00+29e787098 0.3 10111190
10:00+29e667495 1.3 1012826
13:00+29e6774100 5.9 1010860
16:00+28e6776100 2.4 1008560
19:00+29e8874100 2.8 10101017
22:00+29e787598 0.0 1011910
23 april, fri
fri2301:00+29e8874100 0.0 1010891
04:00+29e787473 0.1 10091060
07:00+28e7876100 1.3 1010938
10:00+28ene7875100 0.9 1012742
13:00+28ene6677100 2.5 1010671
16:00+28e5679100 4.6 1009374
19:00+28e4571100 8.9 1010467
22:00+28sse3476100 2.7 1012260
24 april, sat
sat2401:00+27sse1171100 5.1 1010469
04:00+28ene2371100 0.1 1010710
07:00+28ene5570100 0.6 1011740
10:00+27e6670100 0.0 1013711
13:00+27e556998 0.0 1010693
16:00+28ese446975 0.0 1008649
19:00+28ese446738 0.0 1010764
22:00+28ese456999 0.0 1012816
25 april, sun
sun2501:00+28ese447079 0.0 1011831
04:00+28e447182 0.0 1009868
07:00+29e446896 0.0 1010952
10:00+29e45675 0.0 10111063
13:00+29ese44685 0.1 1010837
16:00+29e33682 0.7 1008914
19:00+29e33686 0.7 1010968
22:00+29e336910 0.0 1011939
26 april, mon
mon2601:00+29e33696 0.0 1010916
04:00+28e337310 0.4 1009603
07:00+28e337411 2.4 1011352
10:00+28ene33705 0.9 1012757
13:00+28ne337237 2.7 1010470
16:00+28ene226681 0.1 1008836
19:00+28e236737 0.1 1010818
22:00+28ene33695 0.0 1011814